Home > Weather > Deggendorf > Past weeks

Flag for Germany Past Weather in Deggendorf, Bavaria, Germany — Yesterday and Last 2 Weeks

Now
51 °F

Scattered clouds.


Feels Like: 51 °F
Forecast: 52 / 78 °F
Wind: 1 mph from East

Location: Straubing

Current Time: May 27, 2016 at 6:47:48 AM

Latest Report: May 27, 2016 at 6:00 AM


Visibility: 1 mi

Pressure: 29.98 "Hg

Humidity: 100%

Dew Point: 51 °F

Location of DeggendorfLocation

Past Weather in Deggendorf — Graph

°F

Deggendorf Temperature Yesterday

Maximum temperature yesterday: 73 °F (at 7:00 PM)
Minimum temperature yesterday: 45 °F (at 4:00 AM)
Average temperature yesterday: 59 °F

High & Low Weather Summary for the Past Weeks

 TemperatureHumidityPressure
High81 °F (May 22, 6:00 PM)99% (May 26, 3:00 AM)30.17 "Hg (May 26, 3:00 AM)
Low35 °F (May 18, 6:00 AM)34% (May 22, 6:00 PM)29.38 "Hg (May 12, 3:00 PM)
Average55 °F77%29.89 "Hg
* Reported May 12 4:00 AM — May 27 4:00 AM, Deggendorf, Weather by CustomWeather, © 2016

Note: Actual official high and low records may vary slightly from our data, if they occured in-between our weather recording intervals... More about our weather records

Advertising

Deggendorf Weather History for the Previous 24 Hours

Scroll right to see more
 ConditionsComfort  
Time TempWeatherWind HumidityBarometerVisibility
4:00 AM
Fri, May 27
52 °FClear.1 mph99%29.98 "Hg4 mi
3:00 AM51 °FClear.1 mph98%29.99 "Hg4 mi
1:00 AM55 °FClear.1 mph91%29.99 "Hg10 mi
12:00 AM57 °FClear.2 mph91%29.99 "Hg11 mi
10:00 PM
Thu, May 26
61 °FClear.1 mph81%29.98 "Hg25 mi
9:00 PM67 °FClear.1 mph69%29.96 "Hg22 mi
7:00 PM73 °FSunny.1 mph51%29.94 "Hg34 mi
6:00 PM72 °FPassing clouds.1 mph51%29.95 "Hg28 mi
4:00 PM70 °FPassing clouds.2 mph59%29.98 "Hg16 mi
3:00 PM71 °FPassing clouds.2 mph59%29.99 "Hg16 mi
1:00 PM67 °FSunny.1 mph66%30.01 "Hg12 mi
12:00 PM65 °FSunny.2 mph65%30.02 "Hg10 mi
10:00 AM60 °FSunny.1 mph80%30.04 "Hg4 mi
9:00 AM54 °FLow clouds.1 mph97%30.06 "Hg1 mi
7:00 AM49 °FLow clouds.1 mph98%30.04 "Hg3 mi
6:00 AM46 °FPartly sunny.1 mph99%30.05 "Hg2 mi
Weather by CustomWeather, © 2016

See weather overviewHow to use our weather pages